{"data":{"norad_id":60255,"epoch":"2026-05-25T03:05:45.296736Z","epoch_age_seconds":63229,"freshness":"FRESH","line1":"1 60255U 24131A   26145.12899649 -.00000261  00000+0  33514-5 0  9995","line2":"2 60255  53.1608  57.2475 0001002 100.5296 259.5818 15.31696918103729","mean_motion":15.31696918,"eccentricity":0.0001002,"inclination_deg":53.1608,"raan_deg":57.2475,"arg_perigee_deg":100.5296,"mean_anomaly_deg":259.5818,"bstar":3.3514e-6,"rev_number":10372,"period_min":94.013377129482,"perigee_km":470.06292412719,"apogee_km":471.43544091817,"semimajor_km":6848.8861825227,"source":"CELESTRAK","updated_at":"2026-05-25T13:38:19.197857Z"}}